Weather in Berkat-Yurt

Russia / Chechen Republic     43°19′56″N   45°49′23″E
temp.,
°C
wind,
m/s
gust,
m/s
humid.,
%
clouds,
%
prec.,
mm/h
press.,
hPa
HPBL,
m
15 may, sat
sat1500:00+19ssw11530 0.0 101111
03:00+17ssw11580 0.0 101115
06:00+19wsw11580 0.0 101249
09:00+26nne11431 0.0 1013444
12:00+30ene22345 0.0 10121215
15:00+31ene33320 0.0 10111457
18:00+28ne2338100 0.0 1011222
21:00+22ssw1157100 0.1 101212
16 may, sun
sun1600:00+20s116698 0.0 101123
03:00+19ssw116639 0.0 101011
06:00+20wsw11622 0.0 101082
09:00+26nne11450 0.0 1009538
12:00+30ene44375 0.0 10071105
15:00+32ene33282 0.0 10051234
18:00+29ene23400 0.0 1004213
21:00+23wsw1148100 0.0 100517
17 may, mon
mon1700:00+20s224618 0.0 100532
03:00+18s11385 0.0 100513
06:00+19sse1141100 0.0 100533
09:00+26ne223143 0.0 1005402
12:00+31ne32296 0.0 1004956
15:00+32ene43270 0.0 1003970
18:00+27ne234240 0.0 1003268
21:00+22wsw275465 0.0 1007210
18 may, tue
tue1800:00+21w41072100 0.0 1008481
03:00+19w5117399 0.0 1009591
06:00+20w497499 0.0 1011693
09:00+18w5988100 0.9 1012694
12:00+21wnw4668100 0.7 10131123
15:00+21w3570100 1.2 1014849
18:00+21w357260 0.7 1014343
21:00+18sw258626 1.1 1015112
19 may, wed
wed1900:00+16sw228717 0.0 101540
03:00+15sw22896 0.0 101740
06:00+17sw12790 0.0 101885
09:00+24nnw11540 0.0 1017709
12:00+27ene33380 0.0 10161656
15:00+28e55355 0.0 10141709
18:00+25e364755 0.0 1015845
21:00+20e25631 0.0 1015168